Regional Weather Roundup
Issued by NWS Albany, NY

Home | Current Version | Previous Version | Text Only | Print | Product List | Glossary On
Versions: 1 2 3 4 5 6 7 8 9 10 11 12 13 14 15 16 17 18 19 20 21 22 23 24 25 26 27 28 29 30 31 32 33 34 35 36 37 38 39 40 41 42 43 44 45 46 47 48 49 50
235
ASUS41 KALY 060110
RWRALY

NEW YORK STATE HOURLY WEATHER ROUNDUP
NATIONAL WEATHER SERVICE ALBANY NY
900 PM EDT THU MAY 05 2016

NOTE: "FAIR" INDICATES FEW OR NO CLOUDS BELOW 12,000 FEET WITH NO
SIGNIFICANT WEATHER AND/OR NO OBSTRUCTIONS TO VISIBILITY.

NYZ032-033-038>043-046>054-057>066-NYZ062>081-082-084-060200-
EAST


CITY           SKY/WX    TMP DP  RH WIND       PRES   REMARKS
ALBANY         CLOUDY    55  44  66 N6        29.72R
GLENS FALLS    CLOUDY    57  42  57 N9        29.72R
POUGHKEEPSIE   CLOUDY    57  44  62 NE9G18    29.67R
NEWBURGH       CLOUDY    55  46  71 NE12G23   29.68R
MONTGOMERY     CLOUDY    56  45  66 NE13G22   29.67R
WHITE PLAINS   CLOUDY    53  44  71 NE10      29.67R
ISLIP          CLOUDY    49  44  83 N12       29.66R
NEW YORK CITY  CLOUDY    55  48  77 NE14      29.66R
CENTRAL PARK   CLOUDY    54  43  66 E8        29.69R
$$

NYZ005>009-017-018-044>046-055-056-060200-
CENTRAL


CITY           SKY/WX    TMP DP  RH WIND       PRES   REMARKS
FULTON         CLOUDY    59  43  55 N9        29.76R
SYRACUSE       CLOUDY    57  43  59 N8        29.74R
ROME           CLOUDY    57  43  59 NE8       29.74R
ELMIRA         CLOUDY    55  42  61 VRB3      29.73S
BINGHAMTON     CLOUDY    51  43  74 NE5       29.71S
MONTICELLO     CLOUDY    52  43  71 N7        29.71R
$$

NYZ026>034-041>043-087-060200-
NORTH


CITY           SKY/WX    TMP DP  RH WIND       PRES   REMARKS
WATERTOWN      CLEAR     54  41  61 NE9       29.77S
FORT DRUM      NOT AVBL
MASSENA        CLEAR     54  38  54 NE8       29.80F
SARANAC LAKE   CLOUDY    50  39  66 NE7       29.77S
PLATTSBURGH    CLOUDY    57  41  55 N9        29.78S
$$

NYZ001>004-010>016-019>021-085-060200-
WEST


CITY           SKY/WX    TMP DP  RH WIND       PRES   REMARKS
NIAGARA FALLS  PTCLDY    55  43  63 N5        29.80R
BUFFALO        MOCLDY    56  43  61 N7        29.80R
DUNKIRK        PTCLDY    52  44  74 N6        29.80R
JAMESTOWN      PTCLDY    52  39  62 N8        29.78S
WELLSVILLE     CLOUDY    50  39  66 VRB3      29.77R
ROCHESTER      PTCLDY    53  42  66 N7        29.79R
PENN YAN       CLOUDY    55  43  63 N8        29.76R
$$

             KEY
       WCI = WIND CHILL INDEX
       VSB = VISIBILITY
       HX  = HEAT INDEX
$$




USA.gov is the U.S. government's official web portal to all federal, state and local government web resources and services.